Time,TemperatureF,DewpointF,PressureIn,WindDirection,WindDirectionDegrees,WindSpeedMPH,WindSpeedGustMPH,Humidity,HourlyPrecipIn,Conditions,Clouds,dailyrainin,SoftwareType,DateUTC
2013-04-05 00:00:00,29.3,24.4,29.95,North,350,0.0,0.0,82,0.00,,,0.00,meteohub,2013-04-05 04:00:00,
2013-04-05 00:01:00,29.3,24.8,29.95,North,350,0.0,0.0,83,0.00,,,0.00,meteohub,2013-04-05 04:01:00,
2013-04-05 00:02:00,29.3,24.8,29.95,NE,45,0.0,0.0,83,0.00,,,0.00,meteohub,2013-04-05 04:02:00,
2013-04-05 00:07:00,29.1,24.3,29.96,East,87,0.0,1.0,82,0.00,,,0.00,meteohub,2013-04-05 04:07:00,
2013-04-05 00:08:00,29.1,24.3,29.96,East,87,0.0,1.0,82,0.00,,,0.00,meteohub,2013-04-05 04:08:00,
2013-04-05 00:13:00,29.1,24.6,29.96,ENE,60,0.0,2.0,83,0.00,,,0.00,meteohub,2013-04-05 04:13:00,
2013-04-05 00:19:00,29.1,24.6,29.96,ENE,60,0.0,2.0,83,0.00,,,0.00,meteohub,2013-04-05 04:19:00,
2013-04-05 00:24:00,29.1,25.0,29.95,ENE,60,0.0,2.0,84,0.00,,,0.00,meteohub,2013-04-05 04:24:00,
2013-04-05 00:29:00,29.1,25.0,29.95,East,94,1.0,1.0,84,0.00,,,0.00,meteohub,2013-04-05 04:29:00,
2013-04-05 00:34:00,28.9,24.8,29.95,East,97,0.0,2.0,84,0.00,,,0.00,meteohub,2013-04-05 04:34:00,
2013-04-05 00:40:00,28.9,24.8,29.95,NNW,337,0.0,2.0,84,0.00,,,0.00,meteohub,2013-04-05 04:40:00,
2013-04-05 00:45:00,28.9,24.8,29.95,NNW,337,0.0,2.0,84,0.00,,,0.00,meteohub,2013-04-05 04:45:00,
2013-04-05 00:50:00,28.9,24.8,29.94,ENE,70,0.0,2.0,84,0.00,,,0.00,meteohub,2013-04-05 04:50:00,
2013-04-05 00:55:00,28.9,25.0,29.94,North,349,0.0,1.0,85,0.00,,,0.00,meteohub,2013-04-05 04:55:00,
2013-04-05 01:01:00,28.8,24.6,29.94,North,349,0.0,2.0,84,0.00,,,0.00,meteohub,2013-04-05 05:01:00,
2013-04-05 01:06:00,28.8,24.6,29.94,NE,45,0.0,2.0,84,0.00,,,0.00,meteohub,2013-04-05 05:06:00,
2013-04-05 01:11:00,28.8,24.6,29.94,NE,45,0.0,1.0,84,0.00,,,0.00,meteohub,2013-04-05 05:11:00,
2013-04-05 01:16:00,28.6,24.6,29.94,North,349,0.0,1.0,85,0.00,,,0.00,meteohub,2013-04-05 05:16:00,
2013-04-05 01:22:00,28.6,24.6,29.93,East,95,0.0,2.0,85,0.00,,,0.00,meteohub,2013-04-05 05:22:00,
2013-04-05 01:27:00,28.4,24.8,29.94,NNW,338,0.0,2.0,86,0.00,,,0.00,meteohub,2013-04-05 05:27:00,
2013-04-05 01:32:00,28.2,24.6,29.93,East,93,0.0,2.0,86,0.00,,,0.00,meteohub,2013-04-05 05:32:00,
2013-04-05 01:37:00,28.2,24.3,29.93,East,93,1.0,2.0,85,0.00,,,0.00,meteohub,2013-04-05 05:37:00,
2013-04-05 01:43:00,28.0,24.4,29.93,NNE,27,0.0,2.0,86,0.00,,,0.00,meteohub,2013-04-05 05:43:00,
2013-04-05 01:48:00,28.0,24.1,29.93,NNE,27,0.0,2.0,85,0.00,,,0.00,meteohub,2013-04-05 05:48:00,
2013-04-05 01:53:00,28.0,24.1,29.93,NNE,27,0.0,2.0,85,0.00,,,0.00,meteohub,2013-04-05 05:53:00,
2013-04-05 01:59:00,27.9,24.3,29.92,NNE,27,0.0,1.0,86,0.00,,,0.00,meteohub,2013-04-05 05:59:00,
2013-04-05 02:04:00,27.9,24.3,29.92,NNE,27,0.0,0.0,86,0.00,,,0.00,meteohub,2013-04-05 06:04:00,
2013-04-05 02:09:00,27.9,24.3,29.92,East,92,1.0,0.0,86,0.00,,,0.00,meteohub,2013-04-05 06:09:00,
2013-04-05 02:14:00,27.9,24.3,29.92,East,91,0.0,0.0,86,0.00,,,0.00,meteohub,2013-04-05 06:14:00,
2013-04-05 02:20:00,27.9,24.3,29.92,East,91,0.0,2.0,86,0.00,,,0.00,meteohub,2013-04-05 06:20:00,
2013-04-05 02:25:00,27.9,24.4,29.91,ESE,102,1.0,2.0,87,0.00,,,0.00,meteohub,2013-04-05 06:25:00,
2013-04-05 02:30:00,27.9,24.4,29.91,East,101,1.0,2.0,87,0.00,,,0.00,meteohub,2013-04-05 06:30:00,
2013-04-05 02:35:00,27.9,24.4,29.91,SE,124,1.0,2.0,87,0.00,,,0.00,meteohub,2013-04-05 06:35:00,
2013-04-05 02:40:00,27.9,24.4,29.90,SE,126,0.0,2.0,87,0.00,,,0.00,meteohub,2013-04-05 06:40:00,
2013-04-05 02:45:00,27.9,24.4,29.91,SW,228,1.0,2.0,87,0.00,,,0.00,meteohub,2013-04-05 06:45:00,
2013-04-05 02:50:00,27.9,24.4,29.91,NE,54,0.0,3.0,87,0.00,,,0.00,meteohub,2013-04-05 06:50:00,
2013-04-05 02:55:00,27.9,24.4,29.91,NE,53,0.0,3.0,87,0.00,,,0.00,meteohub,2013-04-05 06:55:00,
2013-04-05 03:00:00,27.9,24.4,29.91,NE,53,0.0,3.0,87,0.00,,,0.00,meteohub,2013-04-05 07:00:00,
2013-04-05 03:06:00,27.7,24.3,29.90,NE,44,0.0,1.0,87,0.00,,,0.00,meteohub,2013-04-05 07:06:00,
2013-04-05 03:11:00,27.7,24.3,29.90,NNE,23,0.0,2.0,87,0.00,,,0.00,meteohub,2013-04-05 07:11:00,
2013-04-05 03:16:00,27.7,24.3,29.90,ENE,77,0.0,2.0,87,0.00,,,0.00,meteohub,2013-04-05 07:16:00,
2013-04-05 03:21:00,27.7,24.6,29.91,East,85,1.0,2.0,88,0.00,,,0.00,meteohub,2013-04-05 07:21:00,
2013-04-05 03:26:00,27.7,24.6,29.90,SE,124,0.0,2.0,88,0.00,,,0.00,meteohub,2013-04-05 07:26:00,
2013-04-05 03:32:00,27.7,24.3,29.90,WNW,295,0.0,4.0,87,0.00,,,0.00,meteohub,2013-04-05 07:32:00,
2013-04-05 03:37:00,27.7,24.3,29.90,North,351,0.0,4.0,87,0.00,,,0.00,meteohub,2013-04-05 07:37:00,
2013-04-05 03:42:00,27.9,24.8,29.90,NW,316,1.0,3.0,88,0.00,,,0.00,meteohub,2013-04-05 07:42:00,
2013-04-05 03:47:00,27.9,24.4,29.90,WNW,284,0.0,3.0,87,0.00,,,0.00,meteohub,2013-04-05 07:47:00,
2013-04-05 03:52:00,27.9,24.8,29.90,NW,315,0.0,3.0,88,0.00,,,0.00,meteohub,2013-04-05 07:52:00,
2013-04-05 03:58:00,28.0,24.6,29.90,NW,309,4.0,4.0,87,0.00,,,0.00,meteohub,2013-04-05 07:58:00,
2013-04-05 04:03:00,28.2,24.8,29.89,ESE,114,0.0,5.0,87,0.00,,,0.00,meteohub,2013-04-05 08:03:00,
2013-04-05 04:09:00,28.2,24.8,29.89,SSW,211,0.0,5.0,87,0.00,,,0.00,meteohub,2013-04-05 08:09:00,
2013-04-05 04:14:00,28.2,24.8,29.89,SSW,211,0.0,4.0,87,0.00,,,0.00,meteohub,2013-04-05 08:14:00,
2013-04-05 04:19:00,28.2,24.8,29.89,NW,305,0.0,2.0,87,0.00,,,0.00,meteohub,2013-04-05 08:19:00,
2013-04-05 04:24:00,28.2,24.6,29.88,WNW,293,1.0,3.0,86,0.00,,,0.00,meteohub,2013-04-05 08:24:00,
2013-04-05 04:29:00,28.2,24.8,29.89,NW,320,4.0,4.0,87,0.00,,,0.00,meteohub,2013-04-05 08:29:00,
2013-04-05 04:35:00,28.2,24.6,29.88,East,97,0.0,5.0,86,0.00,,,0.00,meteohub,2013-04-05 08:35:00,
2013-04-05 04:40:00,28.4,25.0,29.88,SE,124,0.0,5.0,87,0.00,,,0.00,meteohub,2013-04-05 08:40:00,
2013-04-05 04:46:00,28.4,25.0,29.88,NW,322,0.0,4.0,87,0.00,,,0.00,meteohub,2013-04-05 08:46:00,
2013-04-05 04:51:00,28.4,24.8,29.88,NNW,335,1.0,3.0,86,0.00,,,0.00,meteohub,2013-04-05 08:51:00,
2013-04-05 04:57:00,28.6,25.0,29.88,SE,128,2.0,3.0,86,0.00,,,0.00,meteohub,2013-04-05 08:57:00,
2013-04-05 05:02:00,28.6,25.0,29.88,ESE,110,0.0,3.0,86,0.00,,,0.00,meteohub,2013-04-05 09:02:00,
2013-04-05 05:07:00,28.6,25.2,29.88,North,353,2.0,3.0,87,0.00,,,0.00,meteohub,2013-04-05 09:07:00,
2013-04-05 05:12:00,28.6,25.0,29.88,ESE,116,0.0,3.0,86,0.00,,,0.00,meteohub,2013-04-05 09:12:00,
2013-04-05 05:18:00,28.6,25.0,29.88,SSE,166,0.0,3.0,86,0.00,,,0.00,meteohub,2013-04-05 09:18:00,
2013-04-05 05:23:00,28.6,25.0,29.87,SSE,166,0.0,3.0,86,0.00,,,0.00,meteohub,2013-04-05 09:23:00,
2013-04-05 05:28:00,28.6,25.0,29.88,SSE,166,0.0,3.0,86,0.00,,,0.00,meteohub,2013-04-05 09:28:00,
2013-04-05 05:33:00,28.6,25.0,29.87,SSE,166,0.0,3.0,86,0.00,,,0.00,meteohub,2013-04-05 09:33:00,
2013-04-05 05:38:00,28.6,25.0,29.87,SSE,166,0.0,2.0,86,0.00,,,0.00,meteohub,2013-04-05 09:38:00,
2013-04-05 05:44:00,28.6,25.0,29.87,SSE,166,0.0,2.0,86,0.00,,,0.00,meteohub,2013-04-05 09:44:00,
2013-04-05 05:49:00,28.4,24.8,29.87,SSE,162,0.0,2.0,86,0.00,,,0.00,meteohub,2013-04-05 09:49:00,
2013-04-05 05:54:00,28.4,25.0,29.86,East,90,1.0,1.0,87,0.00,,,0.00,meteohub,2013-04-05 09:54:00,
2013-04-05 06:00:00,28.4,24.8,29.87,East,90,0.0,3.0,86,0.00,,,0.00,meteohub,2013-04-05 10:00:00,
2013-04-05 06:05:00,28.2,24.8,29.86,East,90,0.0,3.0,87,0.00,,,0.00,meteohub,2013-04-05 10:05:00,
2013-04-05 06:11:00,28.2,24.8,29.86,East,90,0.0,1.0,87,0.00,,,0.00,meteohub,2013-04-05 10:11:00,
2013-04-05 06:16:00,28.0,24.6,29.86,East,90,0.0,1.0,87,0.00,,,0.00,meteohub,2013-04-05 10:16:00,
2013-04-05 06:21:00,28.0,24.6,29.87,East,90,0.0,1.0,87,0.00,,,0.00,meteohub,2013-04-05 10:21:00,
2013-04-05 06:26:00,28.0,25.0,29.87,ESE,107,0.0,2.0,88,0.00,,,0.00,meteohub,2013-04-05 10:26:00,
2013-04-05 06:32:00,28.0,25.0,29.87,ESE,107,0.0,2.0,88,0.00,,,0.00,meteohub,2013-04-05 10:32:00,
2013-04-05 06:37:00,28.0,25.0,29.87,ESE,107,0.0,2.0,88,0.00,,,0.00,meteohub,2013-04-05 10:37:00,
2013-04-05 06:42:00,28.0,25.0,29.87,ESE,107,0.0,0.0,88,0.00,,,0.00,meteohub,2013-04-05 10:42:00,
2013-04-05 06:47:00,28.0,25.0,29.87,ESE,107,0.0,0.0,88,0.00,,,0.00,meteohub,2013-04-05 10:47:00,
2013-04-05 06:52:00,28.0,25.0,29.87,East,99,0.0,0.0,88,0.00,,,0.00,meteohub,2013-04-05 10:52:00,
2013-04-05 06:58:00,28.0,24.6,29.87,East,99,0.0,1.0,87,0.00,,,0.00,meteohub,2013-04-05 10:58:00,
2013-04-05 07:03:00,27.9,24.4,29.87,East,99,0.0,1.0,87,0.00,,,0.00,meteohub,2013-04-05 11:03:00,
2013-04-05 07:08:00,27.9,24.8,29.87,East,99,1.0,1.0,88,0.00,,,0.00,meteohub,2013-04-05 11:08:00,
2013-04-05 07:13:00,28.0,25.2,29.87,ESE,114,1.0,1.0,89,0.00,,,0.00,meteohub,2013-04-05 11:13:00,
2013-04-05 07:19:00,28.2,25.3,29.88,ESE,114,0.0,2.0,89,0.00,,,0.00,meteohub,2013-04-05 11:19:00,
2013-04-05 07:24:00,28.4,25.3,29.88,ESE,114,0.0,2.0,88,0.00,,,0.00,meteohub,2013-04-05 11:24:00,
2013-04-05 07:29:00,28.6,25.7,29.87,ESE,114,0.0,2.0,89,0.00,,,0.00,meteohub,2013-04-05 11:29:00,
2013-04-05 07:35:00,28.8,25.7,29.87,ESE,114,0.0,1.0,88,0.00,,,0.00,meteohub,2013-04-05 11:35:00,
2013-04-05 07:40:00,28.9,25.9,29.87,ESE,114,0.0,1.0,88,0.00,,,0.00,meteohub,2013-04-05 11:40:00,
2013-04-05 07:45:00,29.1,25.7,29.87,ESE,114,0.0,0.0,87,0.00,,,0.00,meteohub,2013-04-05 11:45:00,
2013-04-05 07:50:00,29.3,25.7,29.87,ESE,114,0.0,0.0,86,0.00,,,0.00,meteohub,2013-04-05 11:50:00,
2013-04-05 07:55:00,29.5,26.1,29.87,ESE,114,0.0,0.0,87,0.00,,,0.00,meteohub,2013-04-05 11:55:00,
2013-04-05 08:01:00,29.8,26.4,29.87,ESE,114,0.0,0.0,87,0.00,,,0.00,meteohub,2013-04-05 12:01:00,
2013-04-05 08:06:00,30.2,26.6,29.87,ESE,114,0.0,0.0,86,0.00,,,0.00,meteohub,2013-04-05 12:06:00,
2013-04-05 08:12:00,30.6,27.0,29.87,ESE,114,0.0,0.0,86,0.00,,,0.00,meteohub,2013-04-05 12:12:00,
2013-04-05 08:17:00,30.9,27.0,29.86,ESE,114,1.0,1.0,85,0.00,,,0.00,meteohub,2013-04-05 12:17:00,
2013-04-05 08:22:00,31.6,27.3,29.86,ESE,114,0.0,2.0,84,0.00,,,0.00,meteohub,2013-04-05 12:22:00,
2013-04-05 08:27:00,32.2,27.7,29.86,ESE,114,0.0,2.0,83,0.00,,,0.00,meteohub,2013-04-05 12:27:00,
2013-04-05 08:32:00,32.7,27.9,29.85,ESE,114,0.0,2.0,82,0.00,,,0.00,meteohub,2013-04-05 12:32:00,
2013-04-05 08:37:00,33.1,28.2,29.85,ESE,114,0.0,1.0,82,0.00,,,0.00,meteohub,2013-04-05 12:37:00,
2013-04-05 08:42:00,33.3,28.0,29.85,ESE,114,0.0,1.0,81,0.00,,,0.00,meteohub,2013-04-05 12:42:00,
2013-04-05 08:47:00,33.6,28.4,29.85,ESE,118,1.0,1.0,81,0.00,,,0.00,meteohub,2013-04-05 12:47:00,
2013-04-05 08:52:00,34.3,28.6,29.85,ESE,113,0.0,2.0,79,0.00,,,0.00,meteohub,2013-04-05 12:52:00,
2013-04-05 08:57:00,34.9,28.8,29.84,ESE,114,0.0,3.0,78,0.00,,,0.00,meteohub,2013-04-05 12:57:00,
2013-04-05 09:02:00,35.2,28.8,29.84,ESE,120,0.0,3.0,77,0.00,,,0.00,meteohub,2013-04-05 13:02:00,
2013-04-05 09:07:00,35.4,28.6,29.83,ESE,120,1.0,3.0,76,0.00,,,0.00,meteohub,2013-04-05 13:07:00,
2013-04-05 09:12:00,35.6,28.8,29.83,ESE,120,0.0,2.0,76,0.00,,,0.00,meteohub,2013-04-05 13:12:00,
2013-04-05 09:17:00,36.0,28.8,29.83,ESE,113,2.0,2.0,75,0.00,,,0.00,meteohub,2013-04-05 13:17:00,
2013-04-05 09:22:00,36.7,29.5,29.83,ESE,120,0.0,3.0,75,0.00,,,0.00,meteohub,2013-04-05 13:22:00,
2013-04-05 09:28:00,37.2,29.3,29.83,SE,141,2.0,4.0,73,0.00,,,0.00,meteohub,2013-04-05 13:28:00,
2013-04-05 09:33:00,38.1,28.9,29.83,ESE,110,3.0,4.0,69,0.00,,,0.00,meteohub,2013-04-05 13:33:00,
2013-04-05 09:38:00,39.2,28.8,29.82,East,97,1.0,5.0,66,0.00,,,0.00,meteohub,2013-04-05 13:38:00,
2013-04-05 09:44:00,40.1,28.9,29.82,ESE,118,2.0,5.0,64,0.00,,,0.00,meteohub,2013-04-05 13:44:00,
2013-04-05 09:50:00,40.6,28.6,29.81,ESE,117,2.0,5.0,62,0.00,,,0.00,meteohub,2013-04-05 13:50:00,
2013-04-05 09:55:00,41.5,28.8,29.81,ESE,109,2.0,5.0,60,0.00,,,0.00,meteohub,2013-04-05 13:55:00,
2013-04-05 10:00:00,42.4,27.5,29.81,SE,133,0.0,5.0,55,0.00,,,0.00,meteohub,2013-04-05 14:00:00,
2013-04-05 10:05:00,43.2,26.2,29.81,ESE,107,0.0,5.0,51,0.00,,,0.00,meteohub,2013-04-05 14:05:00,
2013-04-05 10:11:00,44.1,27.1,29.81,SE,124,1.0,5.0,51,0.00,,,0.00,meteohub,2013-04-05 14:11:00,
2013-04-05 10:16:00,44.6,25.2,29.81,North,355,2.0,5.0,46,0.00,,,0.00,meteohub,2013-04-05 14:16:00,
2013-04-05 10:21:00,44.4,25.9,29.81,ESE,110,0.0,5.0,48,0.00,,,0.00,meteohub,2013-04-05 14:21:00,
2013-04-05 10:26:00,44.8,24.8,29.81,SE,127,0.0,3.0,45,0.00,,,0.00,meteohub,2013-04-05 14:26:00,
2013-04-05 10:32:00,45.1,24.4,29.80,ESE,119,0.0,3.0,44,0.00,,,0.00,meteohub,2013-04-05 14:32:00,
2013-04-05 10:38:00,44.6,24.6,29.80,NNW,334,1.0,3.0,45,0.00,,,0.00,meteohub,2013-04-05 14:38:00,
2013-04-05 10:43:00,44.2,20.8,29.80,NW,322,2.0,3.0,39,0.00,,,0.00,meteohub,2013-04-05 14:43:00,
2013-04-05 10:48:00,45.1,21.7,29.80,East,91,2.0,5.0,39,0.00,,,0.00,meteohub,2013-04-05 14:48:00,
2013-04-05 10:54:00,45.9,21.7,29.80,NNE,27,2.0,5.0,38,0.00,,,0.00,meteohub,2013-04-05 14:54:00,
2013-04-05 11:00:00,45.5,20.7,29.80,ESE,112,0.0,5.0,37,0.00,,,0.00,meteohub,2013-04-05 15:00:00,
2013-04-05 11:05:00,45.9,20.5,29.80,WSW,241,5.0,8.0,36,0.00,,,0.00,meteohub,2013-04-05 15:05:00,
2013-04-05 11:10:00,46.0,19.9,29.79,NW,319,2.0,9.0,35,0.00,,,0.00,meteohub,2013-04-05 15:10:00,
2013-04-05 11:16:00,46.0,20.5,29.80,North,351,5.0,9.0,36,0.00,,,0.00,meteohub,2013-04-05 15:16:00,
2013-04-05 11:22:00,45.7,21.6,29.80,NNW,343,9.0,10.0,38,0.00,,,0.00,meteohub,2013-04-05 15:22:00,
2013-04-05 11:27:00,45.1,22.3,29.80,NNW,344,3.0,13.0,40,0.00,,,0.00,meteohub,2013-04-05 15:27:00,
2013-04-05 11:32:00,45.3,21.2,29.80,WNW,297,8.0,13.0,38,0.00,,,0.00,meteohub,2013-04-05 15:32:00,
2013-04-05 11:37:00,45.3,22.5,29.80,NW,313,9.0,16.0,40,0.00,,,0.00,meteohub,2013-04-05 15:37:00,
2013-04-05 11:42:00,45.3,23.0,29.79,WNW,299,16.0,16.0,41,0.00,,,0.00,meteohub,2013-04-05 15:42:00,
2013-04-05 11:47:00,45.3,23.5,29.80,NNW,334,5.0,16.0,42,0.00,,,0.00,meteohub,2013-04-05 15:47:00,
2013-04-05 11:52:00,45.3,22.5,29.80,NNW,342,5.0,16.0,40,0.00,,,0.00,meteohub,2013-04-05 15:52:00,
2013-04-05 11:57:00,46.0,23.0,29.79,West,270,5.0,16.0,40,0.00,,,0.00,meteohub,2013-04-05 15:57:00,
2013-04-05 12:02:00,46.6,23.0,29.79,NNW,333,13.0,15.0,39,0.00,,,0.00,meteohub,2013-04-05 16:02:00,
2013-04-05 12:08:00,45.3,23.5,29.79,NW,313,7.0,13.0,42,0.00,,,0.00,meteohub,2013-04-05 16:08:00,
2013-04-05 12:13:00,45.1,24.4,29.79,NNW,334,8.0,13.0,44,0.00,,,0.00,meteohub,2013-04-05 16:13:00,
2013-04-05 12:19:00,45.3,25.2,29.79,NE,50,0.0,16.0,45,0.00,,,0.00,meteohub,2013-04-05 16:19:00,
2013-04-05 12:24:00,45.5,24.8,29.79,NNW,348,8.0,16.0,44,0.00,,,0.00,meteohub,2013-04-05 16:24:00,
2013-04-05 12:29:00,45.1,25.5,29.78,North,8,4.0,18.0,46,0.00,,,0.00,meteohub,2013-04-05 16:29:00,
2013-04-05 12:34:00,45.1,25.0,29.78,NNW,346,6.0,18.0,45,0.00,,,0.00,meteohub,2013-04-05 16:34:00,
2013-04-05 12:39:00,45.1,25.5,29.78,NNW,330,15.0,18.0,46,0.00,,,0.00,meteohub,2013-04-05 16:39:00,
2013-04-05 12:44:00,45.3,26.2,29.78,NNW,339,5.0,16.0,47,0.00,,,0.00,meteohub,2013-04-05 16:44:00,
2013-04-05 12:49:00,45.7,25.0,29.78,NW,320,6.0,16.0,44,0.00,,,0.00,meteohub,2013-04-05 16:49:00,
2013-04-05 12:55:00,45.3,26.2,29.77,NNW,331,6.0,11.0,47,0.00,,,0.00,meteohub,2013-04-05 16:55:00,
2013-04-05 13:00:00,45.3,25.7,29.77,North,349,6.0,11.0,46,0.00,,,0.00,meteohub,2013-04-05 17:00:00,
2013-04-05 13:06:00,46.0,25.9,29.77,NW,308,6.0,12.0,45,0.00,,,0.00,meteohub,2013-04-05 17:06:00,
2013-04-05 13:11:00,46.0,25.9,29.77,North,351,8.0,12.0,45,0.00,,,0.00,meteohub,2013-04-05 17:11:00,
2013-04-05 13:17:00,46.6,25.9,29.76,NNW,338,9.0,12.0,44,0.00,,,0.00,meteohub,2013-04-05 17:17:00,
2013-04-05 13:22:00,46.2,25.0,29.76,NNW,327,8.0,13.0,43,0.00,,,0.00,meteohub,2013-04-05 17:22:00,
2013-04-05 13:27:00,46.2,25.0,29.76,NW,323,2.0,15.0,43,0.00,,,0.00,meteohub,2013-04-05 17:27:00,
2013-04-05 13:32:00,46.8,24.8,29.76,WNW,303,6.0,15.0,42,0.00,,,0.00,meteohub,2013-04-05 17:32:00,
2013-04-05 13:37:00,46.6,24.8,29.76,NW,312,9.0,15.0,42,0.00,,,0.00,meteohub,2013-04-05 17:37:00,
2013-04-05 13:42:00,46.2,24.4,29.76,NW,317,1.0,17.0,42,0.00,,,0.00,meteohub,2013-04-05 17:42:00,
2013-04-05 13:47:00,46.6,24.1,29.75,NW,314,7.0,17.0,41,0.00,,,0.00,meteohub,2013-04-05 17:47:00,
2013-04-05 13:52:00,46.8,24.3,29.75,NNW,341,8.0,17.0,41,0.00,,,0.00,meteohub,2013-04-05 17:52:00,
2013-04-05 13:57:00,46.9,25.0,29.75,North,3,5.0,15.0,42,0.00,,,0.00,meteohub,2013-04-05 17:57:00,
2013-04-05 14:02:00,46.9,25.0,29.74,NNW,340,7.0,15.0,42,0.00,,,0.00,meteohub,2013-04-05 18:02:00,
2013-04-05 14:09:00,46.8,24.8,29.74,North,351,6.0,15.0,42,0.00,,,0.00,meteohub,2013-04-05 18:09:00,
2013-04-05 14:14:00,46.6,25.3,29.74,NNW,329,3.0,11.0,43,0.00,,,0.00,meteohub,2013-04-05 18:14:00,
2013-04-05 14:19:00,46.8,26.1,29.74,NNW,342,9.0,11.0,44,0.00,,,0.00,meteohub,2013-04-05 18:19:00,
2013-04-05 14:24:00,46.9,25.0,29.73,NW,318,3.0,11.0,42,0.00,,,0.00,meteohub,2013-04-05 18:24:00,
2013-04-05 14:29:00,46.8,24.3,29.74,NNW,332,7.0,16.0,41,0.00,,,0.00,meteohub,2013-04-05 18:29:00,
2013-04-05 14:34:00,47.3,25.3,29.73,NNW,338,3.0,16.0,42,0.00,,,0.00,meteohub,2013-04-05 18:34:00,
2013-04-05 14:40:00,47.8,24.1,29.73,NW,316,12.0,16.0,39,0.00,,,0.00,meteohub,2013-04-05 18:40:00,
2013-04-05 14:45:00,47.7,23.4,29.73,North,351,8.0,17.0,38,0.00,,,0.00,meteohub,2013-04-05 18:45:00,
2013-04-05 14:50:00,47.8,24.6,29.73,NW,311,6.0,17.0,40,0.00,,,0.00,meteohub,2013-04-05 18:50:00,
2013-04-05 14:55:00,47.5,24.4,29.73,NNW,341,12.0,17.0,40,0.00,,,0.00,meteohub,2013-04-05 18:55:00,
2013-04-05 15:01:00,47.7,24.4,29.73,NNW,346,6.0,15.0,40,0.00,,,0.00,meteohub,2013-04-05 19:01:00,
2013-04-05 15:06:00,47.5,23.7,29.72,NW,316,3.0,15.0,39,0.00,,,0.00,meteohub,2013-04-05 19:06:00,
2013-04-05 15:12:00,47.7,23.9,29.72,NNW,331,5.0,15.0,39,0.00,,,0.00,meteohub,2013-04-05 19:12:00,
2013-04-05 15:17:00,48.0,24.8,29.72,NNW,332,6.0,12.0,40,0.00,,,0.00,meteohub,2013-04-05 19:17:00,
2013-04-05 15:23:00,47.5,24.4,29.72,NW,325,8.0,12.0,40,0.00,,,0.00,meteohub,2013-04-05 19:23:00,
2013-04-05 15:28:00,47.5,25.5,29.72,North,354,6.0,17.0,42,0.00,,,0.00,meteohub,2013-04-05 19:28:00,
2013-04-05 15:33:00,47.3,24.8,29.72,NNE,13,6.0,17.0,41,0.00,,,0.00,meteohub,2013-04-05 19:33:00,
2013-04-05 15:38:00,47.5,25.5,29.72,NW,320,5.0,17.0,42,0.00,,,0.00,meteohub,2013-04-05 19:38:00,
2013-04-05 15:44:00,47.5,25.5,29.72,North,1,8.0,10.0,42,0.00,,,0.00,meteohub,2013-04-05 19:44:00,
2013-04-05 15:49:00,46.8,25.5,29.72,NNW,344,4.0,14.0,43,0.00,,,0.00,meteohub,2013-04-05 19:49:00,
2013-04-05 15:54:00,46.4,25.2,29.72,NNW,332,6.0,20.0,43,0.00,,,0.00,meteohub,2013-04-05 19:54:00,
2013-04-05 15:59:00,46.6,24.8,29.72,North,358,5.0,20.0,42,0.00,,,0.00,meteohub,2013-04-05 19:59:00,
2013-04-05 16:04:00,46.8,25.5,29.73,NNW,341,5.0,20.0,43,0.00,,,0.00,meteohub,2013-04-05 20:04:00,
2013-04-05 16:10:00,46.9,26.2,29.73,NNW,343,6.0,12.0,44,0.00,,,0.00,meteohub,2013-04-05 20:10:00,
2013-04-05 16:15:00,46.8,24.3,29.73,NNW,342,1.0,12.0,41,0.00,,,0.00,meteohub,2013-04-05 20:15:00,
2013-04-05 16:20:00,46.2,25.0,29.73,North,352,7.0,15.0,43,0.00,,,0.00,meteohub,2013-04-05 20:20:00,
2013-04-05 16:25:00,46.6,24.8,29.73,NW,326,8.0,15.0,42,0.00,,,0.00,meteohub,2013-04-05 20:25:00,
2013-04-05 16:31:00,46.6,24.8,29.73,NW,326,5.0,16.0,42,0.00,,,0.00,meteohub,2013-04-05 20:31:00,
2013-04-05 16:36:00,46.0,25.3,29.74,NW,325,4.0,16.0,44,0.00,,,0.00,meteohub,2013-04-05 20:36:00,
2013-04-05 16:41:00,45.1,25.0,29.74,NW,326,5.0,16.0,45,0.00,,,0.00,meteohub,2013-04-05 20:41:00,
2013-04-05 16:46:00,45.0,25.9,29.74,NNW,341,5.0,14.0,47,0.00,,,0.00,meteohub,2013-04-05 20:46:00,
2013-04-05 16:51:00,45.0,25.3,29.75,NNW,329,5.0,14.0,46,0.00,,,0.00,meteohub,2013-04-05 20:51:00,
2013-04-05 16:57:00,45.0,25.3,29.75,NNW,347,4.0,14.0,46,0.00,,,0.00,meteohub,2013-04-05 20:57:00,
2013-04-05 17:02:00,45.0,25.9,29.75,NNW,330,5.0,13.0,47,0.00,,,0.00,meteohub,2013-04-05 21:02:00,
2013-04-05 17:07:00,44.4,24.4,29.75,NNW,330,8.0,13.0,45,0.00,,,0.00,meteohub,2013-04-05 21:07:00,
2013-04-05 17:13:00,44.2,25.3,29.75,NW,320,10.0,13.0,47,0.00,,,0.00,meteohub,2013-04-05 21:13:00,
2013-04-05 17:18:00,44.1,25.2,29.75,NNW,335,6.0,13.0,47,0.00,,,0.00,meteohub,2013-04-05 21:18:00,
2013-04-05 17:24:00,43.5,25.7,29.76,NW,305,3.0,13.0,49,0.00,,,0.00,meteohub,2013-04-05 21:24:00,
2013-04-05 17:29:00,43.3,25.0,29.76,NW,313,11.0,18.0,48,0.00,,,0.00,meteohub,2013-04-05 21:29:00,
2013-04-05 17:35:00,43.5,25.2,29.76,NNW,335,7.0,12.0,48,0.00,,,0.00,meteohub,2013-04-05 21:35:00,
2013-04-05 17:41:00,43.2,25.7,29.76,NW,306,6.0,12.0,50,0.00,,,0.00,meteohub,2013-04-05 21:41:00,
2013-04-05 17:46:00,42.8,26.4,29.77,WNW,297,13.0,14.0,52,0.00,,,0.00,meteohub,2013-04-05 21:46:00,
2013-04-05 17:52:00,42.3,25.9,29.77,NW,311,10.0,15.0,52,0.00,,,0.00,meteohub,2013-04-05 21:52:00,
2013-04-05 17:57:00,41.7,26.8,29.78,NNW,330,7.0,15.0,55,0.00,,,0.00,meteohub,2013-04-05 21:57:00,
2013-04-05 18:03:00,41.0,27.3,29.78,North,1,6.0,15.0,58,0.00,,,0.00,meteohub,2013-04-05 22:03:00,
2013-04-05 18:08:00,40.5,28.4,29.79,North,355,5.0,15.0,62,0.00,,,0.00,meteohub,2013-04-05 22:08:00,
2013-04-05 18:13:00,40.1,28.6,29.80,WNW,303,10.0,15.0,63,0.00,,,0.00,meteohub,2013-04-05 22:13:00,
2013-04-05 18:19:00,39.9,28.8,29.80,NNW,347,7.0,10.0,64,0.00,,,0.00,meteohub,2013-04-05 22:19:00,
2013-04-05 18:24:00,39.6,28.8,29.81,West,270,7.0,15.0,65,0.00,,,0.00,meteohub,2013-04-05 22:24:00,
2013-04-05 18:29:00,38.8,29.5,29.81,NW,306,5.0,15.0,69,0.00,,,0.00,meteohub,2013-04-05 22:29:00,
2013-04-05 18:34:00,38.3,30.0,29.81,North,357,5.0,12.0,72,0.00,,,0.00,meteohub,2013-04-05 22:34:00,
2013-04-05 18:40:00,37.8,30.2,29.82,NNW,341,5.0,12.0,74,0.00,,,0.00,meteohub,2013-04-05 22:40:00,
2013-04-05 18:45:00,37.6,30.7,29.82,North,349,3.0,10.0,76,0.00,,,0.00,meteohub,2013-04-05 22:45:00,
2013-04-05 18:50:00,37.4,30.6,29.82,NNW,341,3.0,10.0,76,0.00,,,0.00,meteohub,2013-04-05 22:50:00,
2013-04-05 18:55:00,37.2,30.7,29.82,NNW,347,1.0,8.0,77,0.00,,,0.00,meteohub,2013-04-05 22:55:00,
2013-04-05 19:01:00,37.2,30.7,29.83,North,349,2.0,6.0,77,0.00,,,0.00,meteohub,2013-04-05 23:01:00,
2013-04-05 19:06:00,37.0,30.6,29.83,NNW,341,3.0,5.0,77,0.00,,,0.00,meteohub,2013-04-05 23:06:00,
2013-04-05 19:11:00,36.9,30.6,29.83,NNW,341,0.0,5.0,78,0.00,,,0.00,meteohub,2013-04-05 23:11:00,
2013-04-05 19:16:00,36.7,30.7,29.84,NNW,338,0.0,5.0,79,0.00,,,0.00,meteohub,2013-04-05 23:16:00,
2013-04-05 19:21:00,36.5,30.6,29.84,North,351,1.0,4.0,79,0.00,,,0.00,meteohub,2013-04-05 23:21:00,
2013-04-05 19:26:00,36.5,30.6,29.84,North,351,0.0,3.0,79,0.00,,,0.00,meteohub,2013-04-05 23:26:00,
2013-04-05 19:31:00,36.7,29.5,29.84,NNW,347,5.0,5.0,75,0.00,,,0.00,meteohub,2013-04-05 23:31:00,
2013-04-05 19:37:00,36.7,29.8,29.84,NW,324,1.0,7.0,76,0.00,,,0.00,meteohub,2013-04-05 23:37:00,
2013-04-05 19:42:00,36.5,29.7,29.85,NW,311,3.0,7.0,76,0.00,,,0.00,meteohub,2013-04-05 23:42:00,
2013-04-05 19:47:00,36.1,30.0,29.85,West,259,1.0,7.0,78,0.00,,,0.00,meteohub,2013-04-05 23:47:00,
2013-04-05 19:52:00,36.0,30.4,29.86,NNW,337,5.0,7.0,80,0.00,,,0.00,meteohub,2013-04-05 23:52:00,
2013-04-05 19:57:00,35.4,29.8,29.86,NNW,330,3.0,8.0,80,0.00,,,0.00,meteohub,2013-04-05 23:57:00,
2013-04-05 20:02:00,35.2,30.4,29.86,NNW,338,3.0,9.0,82,0.00,,,0.00,meteohub,2013-04-06 00:02:00,
2013-04-05 20:08:00,35.1,30.2,29.87,NNW,341,2.0,9.0,82,0.00,,,0.00,meteohub,2013-04-06 00:08:00,
2013-04-05 20:13:00,34.9,30.0,29.87,NNW,335,3.0,8.0,82,0.00,,,0.00,meteohub,2013-04-06 00:13:00,
2013-04-05 20:19:00,34.9,30.0,29.87,NNW,328,1.0,7.0,82,0.00,,,0.00,meteohub,2013-04-06 00:19:00,
2013-04-05 20:24:00,34.7,29.5,29.87,NNW,341,3.0,7.0,81,0.00,,,0.00,meteohub,2013-04-06 00:24:00,
2013-04-05 20:29:00,34.9,29.1,29.88,NNW,332,3.0,6.0,79,0.00,,,0.00,meteohub,2013-04-06 00:29:00,
2013-04-05 20:35:00,34.9,28.4,29.88,NNW,336,2.0,8.0,77,0.00,,,0.00,meteohub,2013-04-06 00:35:00,
2013-04-05 20:40:00,35.1,28.6,29.88,NNW,341,3.0,8.0,77,0.00,,,0.00,meteohub,2013-04-06 00:40:00,
2013-04-05 20:45:00,34.9,28.8,29.88,NNW,334,1.0,8.0,78,0.00,,,0.00,meteohub,2013-04-06 00:45:00,
2013-04-05 20:51:00,34.9,27.7,29.88,WNW,291,1.0,4.0,75,0.00,,,0.00,meteohub,2013-04-06 00:51:00,
2013-04-05 20:56:00,35.1,27.3,29.89,NNW,337,5.0,7.0,73,0.00,,,0.00,meteohub,2013-04-06 00:56:00,
2013-04-05 21:02:00,35.1,27.0,29.89,NNW,348,5.0,12.0,72,0.00,,,0.00,meteohub,2013-04-06 01:02:00,
2013-04-05 21:07:00,35.1,26.2,29.89,NNW,330,3.0,12.0,70,0.00,,,0.00,meteohub,2013-04-06 01:07:00,
2013-04-05 21:12:00,35.1,26.6,29.89,NW,320,4.0,12.0,71,0.00,,,0.00,meteohub,2013-04-06 01:12:00,
2013-04-05 21:17:00,34.9,25.3,29.89,North,0,6.0,8.0,68,0.00,,,0.00,meteohub,2013-04-06 01:17:00,
2013-04-05 21:23:00,34.9,25.3,29.89,NNW,342,5.0,8.0,68,0.00,,,0.00,meteohub,2013-04-06 01:23:00,
2013-04-05 21:29:00,34.9,25.0,29.89,NW,314,4.0,9.0,67,0.00,,,0.00,meteohub,2013-04-06 01:29:00,
2013-04-05 21:34:00,34.9,25.0,29.90,NW,314,5.0,9.0,67,0.00,,,0.00,meteohub,2013-04-06 01:34:00,
2013-04-05 21:40:00,34.5,24.6,29.90,NW,309,5.0,10.0,67,0.00,,,0.00,meteohub,2013-04-06 01:40:00,
2013-04-05 21:45:00,34.5,24.6,29.90,NW,315,1.0,10.0,67,0.00,,,0.00,meteohub,2013-04-06 01:45:00,
2013-04-05 21:50:00,34.3,24.4,29.90,NNW,334,0.0,6.0,67,0.00,,,0.00,meteohub,2013-04-06 01:50:00,
2013-04-05 21:56:00,34.0,24.6,29.90,NNW,338,1.0,6.0,68,0.00,,,0.00,meteohub,2013-04-06 01:56:00,
2013-04-05 22:01:00,33.8,24.1,29.90,North,351,0.0,6.0,67,0.00,,,0.00,meteohub,2013-04-06 02:01:00,
2013-04-05 22:06:00,33.6,23.9,29.90,North,1,3.0,4.0,67,0.00,,,0.00,meteohub,2013-04-06 02:06:00,
2013-04-05 22:12:00,33.8,23.0,29.90,West,273,9.0,10.0,64,0.00,,,0.00,meteohub,2013-04-06 02:12:00,
2013-04-05 22:17:00,34.0,23.0,29.90,NNW,341,3.0,14.0,64,0.00,,,0.00,meteohub,2013-04-06 02:17:00,
2013-04-05 22:22:00,33.8,23.0,29.90,NNW,338,2.0,14.0,64,0.00,,,0.00,meteohub,2013-04-06 02:22:00,
2013-04-05 22:27:00,33.4,22.6,29.90,NNW,334,2.0,14.0,64,0.00,,,0.00,meteohub,2013-04-06 02:27:00,
2013-04-05 22:32:00,33.4,22.6,29.91,NW,304,3.0,6.0,64,0.00,,,0.00,meteohub,2013-04-06 02:32:00,
2013-04-05 22:37:00,33.3,22.8,29.91,NW,318,3.0,6.0,65,0.00,,,0.00,meteohub,2013-04-06 02:37:00,
2013-04-05 22:43:00,33.1,22.6,29.91,NNW,337,6.0,6.0,65,0.00,,,0.00,meteohub,2013-04-06 02:43:00,
2013-04-05 22:48:00,33.1,22.6,29.91,NW,310,8.0,8.0,65,0.00,,,0.00,meteohub,2013-04-06 02:48:00,
2013-04-05 22:53:00,33.1,22.3,29.91,NNW,341,5.0,8.0,64,0.00,,,0.00,meteohub,2013-04-06 02:53:00,
2013-04-05 22:59:00,33.1,22.3,29.90,North,10,3.0,8.0,64,0.00,,,0.00,meteohub,2013-04-06 02:59:00,
2013-04-05 23:05:00,32.9,22.1,29.91,NNW,341,4.0,8.0,64,0.00,,,0.00,meteohub,2013-04-06 03:05:00,
2013-04-05 23:11:00,32.7,21.9,29.91,West,281,3.0,9.0,64,0.00,,,0.00,meteohub,2013-04-06 03:11:00,
2013-04-05 23:16:00,32.5,22.1,29.91,NE,51,1.0,9.0,65,0.00,,,0.00,meteohub,2013-04-06 03:16:00,
2013-04-05 23:22:00,32.5,22.5,29.91,NNW,336,6.0,10.0,66,0.00,,,0.00,meteohub,2013-04-06 03:22:00,
2013-04-05 23:27:00,32.4,22.3,29.91,NNW,330,4.0,10.0,66,0.00,,,0.00,meteohub,2013-04-06 03:27:00,
2013-04-05 23:32:00,32.2,22.1,29.91,North,350,5.0,10.0,66,0.00,,,0.00,meteohub,2013-04-06 03:32:00,
2013-04-05 23:37:00,32.2,22.1,29.91,WNW,297,5.0,11.0,66,0.00,,,0.00,meteohub,2013-04-06 03:37:00,
2013-04-05 23:42:00,32.2,22.1,29.91,North,353,5.0,12.0,66,0.00,,,0.00,meteohub,2013-04-06 03:42:00,
2013-04-05 23:47:00,32.2,22.1,29.92,NNW,329,7.0,13.0,66,0.00,,,0.00,meteohub,2013-04-06 03:47:00,
2013-04-05 23:53:00,32.0,21.9,29.92,WNW,286,7.0,13.0,66,0.00,,,0.00,meteohub,2013-04-06 03:53:00,
2013-04-05 23:58:00,31.8,21.7,29.92,NNW,338,4.0,14.0,66,0.00,,,0.00,meteohub,2013-04-06 03:58:00,